Home > Weather > Fürstenfeldbruck > Past weeks

Flag for Germany Past Weather in Fürstenfeldbruck, Bavaria, Germany — Yesterday and Last 2 Weeks

Now
68 °F

Passing clouds.


Feels Like: 68 °F
Forecast: 63 / 75 °F
Wind: 5 mph from Northwest

Location: Lechfeld

Current Time: Jul 25, 2016 at 12:27:10 AM

Latest Report: Jul 24, 2016 at 11:20 PM


Visibility: N/A

Pressure: 30.12 "Hg (28.35 "Hg at 520m altitude)

Humidity: 78%

Dew Point: 61 °F

Location of FürstenfeldbruckLocation

Past Weather in Fürstenfeldbruck — Graph

°F

Fürstenfeldbruck Temperature Yesterday

Maximum temperature yesterday: 79 °F (at 3:20 PM)
Minimum temperature yesterday: 59 °F (at 5:20 AM)
Average temperature yesterday: 69 °F

High & Low Weather Summary for the Past Weeks

 TemperatureHumidityPressure
High88 °F (Jul 10, 5:20 PM)100% (Jul 12, 1:20 AM)30.36 "Hg (Jul 12, 1:20 AM)
Low45 °F (Jul 16, 12:20 AM)31% (Jul 20, 4:20 PM)29.92 "Hg (Jul 11, 3:20 PM)
Average66 °F72%30.11 "Hg
* Reported Jul 9 10:20 PM — Jul 24 10:20 PM, Fürstenfeldbruck, Weather by CustomWeather, © 2016

Note: Actual official high and low records may vary slightly from our data, if they occured in-between our weather recording intervals... More about our weather records

Advertising

Fürstenfeldbruck Weather History for the Previous 24 Hours

Scroll right to see more
 ConditionsComfort  
Time TempWeatherWind HumidityBarometerVisibility
10:20 PM
Sun, Jul 24
70 °FPassing clouds.7 mph73%30.12 "HgN/A
9:20 PM72 °FScattered clouds.6 mph73%30.12 "HgN/A
8:20 PM75 °FMild.6 mph61%30.09 "HgN/A
7:20 PM77 °FWarm.6 mph54%30.09 "HgN/A
6:20 PM79 °FWarm.5 mph48%30.09 "HgN/A
5:20 PM77 °FWarm.1 mph51%30.07 "HgN/A
4:20 PM79 °FWarm.5 mph51%30.09 "HgN/A
3:20 PM79 °FWarm.3 mph51%30.12 "HgN/A
2:20 PM77 °FWarm.3 mph54%30.12 "HgN/A
1:20 PM77 °FWarm.3 mph57%30.12 "HgN/A
12:20 PM73 °FMild.2 mph65%30.12 "HgN/A
11:20 AM72 °FMild.2 mph69%30.12 "HgN/A
10:20 AM68 °FMild.3 mph78%30.15 "HgN/A
9:20 AM66 °FMild.3 mph83%30.15 "HgN/A
8:20 AM64 °FMild.6 mph88%30.12 "HgN/A
7:20 AM63 °FMild.3 mph88%30.12 "HgN/A
6:20 AM59 °FCool.7 mph94%30.12 "HgN/A
5:20 AM59 °FCool.3 mph94%30.12 "Hg6 mi
4:20 AM61 °FCool.3 mph94%30.12 "HgN/A
3:20 AM61 °FCool.2 mph94%30.12 "HgN/A
2:20 AM61 °FCool.6 mph100%30.12 "HgN/A
1:20 AM63 °FMild.7 mph94%30.12 "Hg6 mi
12:20 AM63 °FMild.9 mph94%30.12 "Hg6 mi
Weather by CustomWeather, © 2016

See weather overviewHow to use our weather pages